Data No.,UTC Date,UTC Time,Latitude,Longitude,Course(deg),Temp(degC)
21,2015/10/24,10:26:00,33-10.2300N,135-58.1700E,251,26.326
22,2015/10/24,10:27:00,33-10.1700N,135-57.9600E,251,26.334
23,2015/10/24,10:28:00,33-10.1000N,135-57.7800E,243,26.33
24,2015/10/24,10:29:00,33-10.0200N,135-57.5900E,245,26.319
25,2015/10/24,10:30:00,33-09.9400N,135-57.4100E,239,26.323
26,2015/10/24,10:31:00,33-09.8500N,135-57.2300E,242,26.33
27,2015/10/24,10:32:00,33-09.7400N,135-57.0600E,229,26.342
28,2015/10/24,10:33:00,33-09.6200N,135-56.9200E,220,26.349
29,2015/10/24,10:34:00,33-09.4800N,135-56.7900E,215,26.356
30,2015/10/24,10:35:00,33-09.3300N,135-56.6700E,213,26.352
31,2015/10/24,10:36:00,33-09.1700N,135-56.5600E,210,26.325
32,2015/10/24,10:37:00,33-09.0100N,135-56.4400E,211,26.327
33,2015/10/24,10:38:00,33-08.8600N,135-56.3200E,216,26.327
34,2015/10/24,10:39:00,33-08.7100N,135-56.1900E,215,26.334
35,2015/10/24,10:40:00,33-08.5600N,135-56.0600E,215,26.344
36,2015/10/24,10:41:00,33-08.4000N,135-55.9300E,214,26.36
37,2015/10/24,10:42:00,33-08.2500N,135-55.8000E,214,26.379
38,2015/10/24,10:43:00,33-08.0900N,135-55.6600E,216,26.394
39,2015/10/24,10:44:00,33-07.9400N,135-55.5300E,216,26.397
40,2015/10/24,10:45:00,33-07.7800N,135-55.3900E,216,26.398
41,2015/10/24,10:46:00,33-07.6300N,135-55.2600E,216,26.4
42,2015/10/24,10:47:00,33-07.4700N,135-55.1300E,215,26.402
43,2015/10/24,10:48:00,33-07.3000N,135-54.9800E,216,26.403
44,2015/10/24,10:49:00,33-07.1500N,135-54.8400E,215,26.402
45,2015/10/24,10:50:00,33-06.9900N,135-54.7100E,215,26.398
46,2015/10/24,10:51:00,33-06.8300N,135-54.5800E,215,26.39
47,2015/10/24,10:52:00,33-06.6700N,135-54.4400E,215,26.385
48,2015/10/24,10:53:00,33-06.5200N,135-54.3100E,215,26.378
49,2015/10/24,10:54:00,33-06.3600N,135-54.1800E,215,26.365
50,2015/10/24,10:55:00,33-06.2000N,135-54.0400E,216,26.355
51,2015/10/24,10:56:00,33-06.0500N,135-53.9100E,215,26.369
52,2015/10/24,10:57:00,33-05.8800N,135-53.7700E,214,26.384
53,2015/10/24,10:58:00,33-05.7200N,135-53.6400E,214,26.395
54,2015/10/24,10:59:00,33-05.5500N,135-53.5000E,215,26.393
55,2015/10/24,11:00:00,33-05.3900N,135-53.3700E,214,26.389
56,2015/10/24,11:01:00,33-05.2400N,135-53.2400E,214,26.378
57,2015/10/24,11:02:00,33-05.0700N,135-53.1000E,215,26.379
58,2015/10/24,11:03:00,33-04.9100N,135-52.9600E,215,26.372
59,2015/10/24,11:04:00,33-04.7500N,135-52.8300E,215,26.355
60,2015/10/24,11:05:00,33-04.5900N,135-52.7000E,214,26.316
61,2015/10/24,11:06:00,33-04.4200N,135-52.5700E,214,26.304
62,2015/10/24,11:07:00,33-04.2600N,135-52.4400E,215,26.319
63,2015/10/24,11:08:00,33-04.1000N,135-52.3000E,213,26.332
64,2015/10/24,11:09:00,33-03.9200N,135-52.1600E,214,26.341
65,2015/10/24,11:10:00,33-03.7600N,135-52.0200E,214,26.424
66,2015/10/24,11:11:00,33-03.5900N,135-51.8900E,215,26.453
67,2015/10/24,11:12:00,33-03.4300N,135-51.7600E,214,26.462
68,2015/10/24,11:13:00,33-03.2700N,135-51.6200E,215,26.464
69,2015/10/24,11:14:00,33-03.1100N,135-51.4900E,216,26.461
70,2015/10/24,11:15:00,33-02.9500N,135-51.3600E,213,26.461
71,2015/10/24,11:16:00,33-02.7800N,135-51.2300E,212,26.442
72,2015/10/24,11:17:00,33-02.6200N,135-51.1000E,215,26.395
73,2015/10/24,11:18:00,33-02.4700N,135-50.9700E,215,26.361
74,2015/10/24,11:19:00,33-02.3100N,135-50.8400E,214,26.361
75,2015/10/24,11:20:00,33-02.1400N,135-50.7100E,213,26.371
76,2015/10/24,11:21:00,33-01.9800N,135-50.5800E,214,26.398
77,2015/10/24,11:22:00,33-01.8200N,135-50.4500E,213,26.435
78,2015/10/24,11:23:00,33-01.6600N,135-50.3200E,214,26.457
79,2015/10/24,11:24:00,33-01.5000N,135-50.1800E,216,26.473
80,2015/10/24,11:25:00,33-01.3400N,135-50.0500E,214,26.468
81,2015/10/24,11:26:00,33-01.1900N,135-49.9200E,214,26.461
82,2015/10/24,11:27:00,33-01.0200N,135-49.7900E,215,26.459
83,2015/10/24,11:28:00,33-00.8700N,135-49.6600E,215,26.463
84,2015/10/24,11:29:00,33-00.7000N,135-49.5100E,214,26.472
85,2015/10/24,11:30:00,33-00.5400N,135-49.3800E,215,26.464
86,2015/10/24,11:31:00,33-00.3700N,135-49.2400E,214,26.468
87,2015/10/24,11:32:00,33-00.2200N,135-49.1100E,216,26.467
88,2015/10/24,11:33:00,33-00.0500N,135-48.9700E,215,26.467
89,2015/10/24,11:34:00,32-59.8900N,135-48.8300E,215,26.463
90,2015/10/24,11:35:00,32-59.7300N,135-48.6900E,216,26.461
91,2015/10/24,11:36:00,32-59.5800N,135-48.5600E,215,26.452
92,2015/10/24,11:37:00,32-59.4100N,135-48.4200E,215,26.438
93,2015/10/24,11:38:00,32-59.2500N,135-48.2800E,215,26.417
94,2015/10/24,11:39:00,32-59.0900N,135-48.1400E,215,26.408
95,2015/10/24,11:40:00,32-58.9300N,135-48.0100E,218,26.414
96,2015/10/24,11:41:00,32-58.7800N,135-47.8500E,221,26.413
97,2015/10/24,11:42:00,32-58.6400N,135-47.7000E,219,26.418
98,2015/10/24,11:43:00,32-58.4900N,135-47.5500E,222,26.424
99,2015/10/24,11:44:00,32-58.3500N,135-47.3900E,227,26.433
100,2015/10/24,11:45:00,32-58.2300N,135-47.2200E,226,26.454
101,2015/10/24,11:46:00,32-58.0900N,135-47.0600E,225,26.472
102,2015/10/24,11:47:00,32-57.9600N,135-46.9000E,224,26.491
103,2015/10/24,11:48:00,32-57.8300N,135-46.7300E,228,26.497
104,2015/10/24,11:49:00,32-57.7000N,135-46.5600E,227,26.495
105,2015/10/24,11:50:00,32-57.5600N,135-46.4000E,225,26.491
106,2015/10/24,11:51:00,32-57.4200N,135-46.2200E,227,26.496
107,2015/10/24,11:52:00,32-57.2900N,135-46.0500E,226,26.496
108,2015/10/24,11:53:00,32-57.1500N,135-45.8800E,226,26.497
109,2015/10/24,11:54:00,32-57.0200N,135-45.7100E,226,26.497
110,2015/10/24,11:55:00,32-56.8900N,135-45.5500E,226,26.5
111,2015/10/24,11:56:00,32-56.7600N,135-45.3700E,226,26.504
112,2015/10/24,11:57:00,32-56.6300N,135-45.2100E,225,26.502
113,2015/10/24,11:58:00,32-56.4900N,135-45.0400E,225,26.505
114,2015/10/24,11:59:00,32-56.3600N,135-44.8700E,228,26.505
115,2015/10/24,12:00:00,32-56.2300N,135-44.6900E,229,26.506
116,2015/10/24,12:01:00,32-56.1000N,135-44.5200E,228,26.509
117,2015/10/24,12:02:00,32-55.9700N,135-44.3500E,228,26.507
118,2015/10/24,12:03:00,32-55.8400N,135-44.1700E,228,26.502
119,2015/10/24,12:04:00,32-55.7100N,135-44.0000E,228,26.494
120,2015/10/24,12:05:00,32-55.5700N,135-43.8200E,228,26.493
121,2015/10/24,12:06:00,32-55.4400N,135-43.6500E,227,26.496
122,2015/10/24,12:07:00,32-55.3100N,135-43.4700E,230,26.494
123,2015/10/24,12:08:00,32-55.1900N,135-43.2900E,230,26.477
124,2015/10/24,12:09:00,32-55.0600N,135-43.1100E,229,26.473
125,2015/10/24,12:10:00,32-54.9300N,135-42.9300E,229,26.477
126,2015/10/24,12:11:00,32-54.8100N,135-42.7600E,230,26.482
127,2015/10/24,12:12:00,32-54.6700N,135-42.5600E,230,26.484
128,2015/10/24,12:13:00,32-54.5500N,135-42.3800E,230,26.482
129,2015/10/24,12:14:00,32-54.4200N,135-42.2000E,231,26.488
130,2015/10/24,12:15:00,32-54.2900N,135-42.0200E,230,26.491
131,2015/10/24,12:16:00,32-54.1700N,135-41.8400E,230,26.492
132,2015/10/24,12:17:00,32-54.0500N,135-41.6600E,230,26.498
133,2015/10/24,12:18:00,32-53.9200N,135-41.4700E,230,26.51
134,2015/10/24,12:19:00,32-53.8000N,135-41.2900E,230,26.507
135,2015/10/24,12:20:00,32-53.6700N,135-41.1000E,231,26.506
136,2015/10/24,12:21:00,32-53.5500N,135-40.9200E,232,26.497
137,2015/10/24,12:22:00,32-53.4300N,135-40.7400E,231,26.498
138,2015/10/24,12:23:00,32-53.3000N,135-40.5500E,231,26.494
139,2015/10/24,12:24:00,32-53.1700N,135-40.3600E,231,26.503
140,2015/10/24,12:25:00,32-53.0500N,135-40.1800E,232,26.514
141,2015/10/24,12:26:00,32-52.9300N,135-40.0000E,232,26.512
142,2015/10/24,12:27:00,32-52.8100N,135-39.8100E,231,26.514
143,2015/10/24,12:28:00,32-52.6800N,135-39.6200E,232,26.512
144,2015/10/24,12:29:00,32-52.5600N,135-39.4300E,231,26.513
145,2015/10/24,12:30:00,32-52.4300N,135-39.2400E,230,26.491
146,2015/10/24,12:31:00,32-52.3100N,135-39.0600E,231,26.492
147,2015/10/24,12:32:00,32-52.1800N,135-38.8700E,231,26.497
148,2015/10/24,12:33:00,32-52.0500N,135-38.6700E,230,26.509
149,2015/10/24,12:34:00,32-51.9200N,135-38.4800E,230,26.522
150,2015/10/24,12:35:00,32-51.7900N,135-38.2900E,232,26.522
151,2015/10/24,12:36:00,32-51.6700N,135-38.1100E,231,26.524
152,2015/10/24,12:37:00,32-51.5400N,135-37.9200E,230,26.518
153,2015/10/24,12:38:00,32-51.4100N,135-37.7300E,230,26.507
154,2015/10/24,12:39:00,32-51.2900N,135-37.5500E,230,26.507
155,2015/10/24,12:40:00,32-51.1600N,135-37.3600E,231,26.512
156,2015/10/24,12:41:00,32-51.0300N,135-37.1700E,231,26.513
157,2015/10/24,12:42:00,32-50.9100N,135-36.9900E,230,26.514
158,2015/10/24,12:43:00,32-50.7800N,135-36.8000E,230,26.505
159,2015/10/24,12:44:00,32-50.6500N,135-36.6200E,231,26.474
160,2015/10/24,12:45:00,32-50.5200N,135-36.4300E,231,26.447
161,2015/10/24,12:46:00,32-50.3900N,135-36.2400E,231,26.43
162,2015/10/24,12:47:00,32-50.2700N,135-36.0500E,232,26.422
163,2015/10/24,12:48:00,32-50.1400N,135-35.8600E,232,26.416
164,2015/10/24,12:49:00,32-50.0100N,135-35.6700E,231,26.404
165,2015/10/24,12:50:00,32-49.8900N,135-35.4900E,230,26.385
166,2015/10/24,12:51:00,32-49.7600N,135-35.2900E,231,26.368
167,2015/10/24,12:52:00,32-49.6300N,135-35.1000E,231,26.359
168,2015/10/24,12:53:00,32-49.5000N,135-34.9000E,231,26.352
169,2015/10/24,12:54:00,32-49.3700N,135-34.7200E,231,26.347
170,2015/10/24,12:55:00,32-49.2400N,135-34.5200E,230,26.34
171,2015/10/24,12:56:00,32-49.1100N,135-34.3400E,231,26.34
172,2015/10/24,12:57:00,32-48.9900N,135-34.1500E,231,26.347
173,2015/10/24,12:58:00,32-48.8600N,135-33.9600E,232,26.368
174,2015/10/24,12:59:00,32-48.7300N,135-33.7700E,232,26.39
175,2015/10/24,13:00:00,32-48.6000N,135-33.5800E,230,26.397
176,2015/10/24,13:01:00,32-48.4800N,135-33.3900E,230,26.404
177,2015/10/24,13:02:00,32-48.3500N,135-33.2000E,230,26.383
178,2015/10/24,13:03:00,32-48.2200N,135-33.0100E,230,26.376
179,2015/10/24,13:04:00,32-48.0900N,135-32.8200E,231,26.373
180,2015/10/24,13:05:00,32-47.9700N,135-32.6300E,232,26.375
181,2015/10/24,13:06:00,32-47.8400N,135-32.4400E,233,26.381
182,2015/10/24,13:07:00,32-47.7200N,135-32.2400E,232,26.39
183,2015/10/24,13:08:00,32-47.5900N,135-32.0600E,231,26.4
184,2015/10/24,13:09:00,32-47.4600N,135-31.8600E,232,26.425
185,2015/10/24,13:10:00,32-47.3400N,135-31.6700E,232,26.449
186,2015/10/24,13:11:00,32-47.2200N,135-31.4800E,234,26.46
187,2015/10/24,13:12:00,32-47.0800N,135-31.3000E,223,26.453
188,2015/10/24,13:13:00,32-46.9200N,135-31.1400E,221,26.448
189,2015/10/24,13:14:00,32-46.7600N,135-30.9600E,223,26.443
190,2015/10/24,13:15:00,32-46.6100N,135-30.8000E,222,26.439
191,2015/10/24,13:16:00,32-46.4600N,135-30.6300E,223,26.439
192,2015/10/24,13:17:00,32-46.3000N,135-30.4600E,222,26.435
193,2015/10/24,13:18:00,32-46.1500N,135-30.2900E,223,26.426
194,2015/10/24,13:19:00,32-45.9900N,135-30.1200E,222,26.424
195,2015/10/24,13:20:00,32-45.8400N,135-29.9600E,222,26.423
196,2015/10/24,13:21:00,32-45.6900N,135-29.7900E,221,26.418
197,2015/10/24,13:22:00,32-45.5400N,135-29.6200E,222,26.407
198,2015/10/24,13:23:00,32-45.3800N,135-29.4500E,222,26.389
199,2015/10/24,13:24:00,32-45.2300N,135-29.2900E,220,26.388
200,2015/10/24,13:25:00,32-45.0700N,135-29.1200E,220,26.393
201,2015/10/24,13:26:00,32-44.9100N,135-28.9600E,220,26.385
202,2015/10/24,13:27:00,32-44.7500N,135-28.8000E,220,26.384
203,2015/10/24,13:28:00,32-44.5900N,135-28.6400E,219,26.384
204,2015/10/24,13:29:00,32-44.4400N,135-28.4800E,221,26.382
205,2015/10/24,13:30:00,32-44.2800N,135-28.3100E,220,26.385
206,2015/10/24,13:31:00,32-44.1200N,135-28.1500E,220,26.384
207,2015/10/24,13:32:00,32-43.9600N,135-27.9900E,220,26.387
208,2015/10/24,13:33:00,32-43.8000N,135-27.8300E,220,26.382
209,2015/10/24,13:34:00,32-43.6400N,135-27.6600E,222,26.373
210,2015/10/24,13:35:00,32-43.4800N,135-27.4900E,220,26.359
211,2015/10/24,13:36:00,32-43.3200N,135-27.3200E,221,26.342
212,2015/10/24,13:37:00,32-43.1600N,135-27.1600E,221,26.334
213,2015/10/24,13:38:00,32-43.0000N,135-26.9900E,221,26.334
214,2015/10/24,13:39:00,32-42.8400N,135-26.8300E,221,26.33
215,2015/10/24,13:40:00,32-42.6800N,135-26.6600E,221,26.325
216,2015/10/24,13:41:00,32-42.5200N,135-26.5000E,221,26.32
217,2015/10/24,13:42:00,32-42.3600N,135-26.3300E,222,26.319
218,2015/10/24,13:43:00,32-42.2000N,135-26.1600E,220,26.325
219,2015/10/24,13:44:00,32-42.0500N,135-26.0000E,221,26.324
220,2015/10/24,13:45:00,32-41.8900N,135-25.8300E,222,26.318
221,2015/10/24,13:46:00,32-41.7300N,135-25.6600E,222,26.314
222,2015/10/24,13:47:00,32-41.5700N,135-25.4900E,222,26.331
223,2015/10/24,13:48:00,32-41.4100N,135-25.3200E,222,26.348
224,2015/10/24,13:49:00,32-41.2500N,135-25.1400E,222,26.359
225,2015/10/24,13:50:00,32-41.1000N,135-24.9700E,222,26.368
226,2015/10/24,13:51:00,32-40.9400N,135-24.8000E,222,26.367
227,2015/10/24,13:52:00,32-40.7800N,135-24.6300E,223,26.366
228,2015/10/24,13:53:00,32-40.6200N,135-24.4500E,221,26.361
229,2015/10/24,13:54:00,32-40.4600N,135-24.2800E,222,26.363
230,2015/10/24,13:55:00,32-40.3000N,135-24.1100E,222,26.372
231,2015/10/24,13:56:00,32-40.1300N,135-23.9100E,223,26.371
232,2015/10/24,13:57:00,32-39.9600N,135-23.7400E,221,26.368
233,2015/10/24,13:58:00,32-39.8100N,135-23.5600E,227,26.359
234,2015/10/24,13:59:00,32-39.6600N,135-23.3600E,230,26.345
235,2015/10/24,14:00:00,32-39.5200N,135-23.1600E,228,26.325
236,2015/10/24,14:01:00,32-39.3800N,135-22.9700E,228,26.298
237,2015/10/24,14:02:00,32-39.2300N,135-22.7600E,228,26.262
238,2015/10/24,14:03:00,32-39.0800N,135-22.5600E,229,26.242
239,2015/10/24,14:04:00,32-38.9400N,135-22.3700E,229,26.227
240,2015/10/24,14:05:00,32-38.7900N,135-22.1800E,228,26.235
241,2015/10/24,14:06:00,32-38.6400N,135-21.9800E,229,26.261
242,2015/10/24,14:07:00,32-38.4900N,135-21.7800E,228,26.286
243,2015/10/24,14:08:00,32-38.3500N,135-21.5900E,230,26.296
244,2015/10/24,14:09:00,32-38.2000N,135-21.3900E,229,26.296
245,2015/10/24,14:10:00,32-38.0600N,135-21.1900E,229,26.291
246,2015/10/24,14:11:00,32-37.9100N,135-20.9900E,228,26.279
247,2015/10/24,14:12:00,32-37.7700N,135-20.7900E,229,26.258
248,2015/10/24,14:13:00,32-37.6200N,135-20.5900E,230,26.251
249,2015/10/24,14:14:00,32-37.4800N,135-20.3900E,231,26.26
250,2015/10/24,14:15:00,32-37.3400N,135-20.1900E,229,26.28
251,2015/10/24,14:16:00,32-37.2000N,135-19.9900E,228,26.289
252,2015/10/24,14:17:00,32-37.0400N,135-19.7900E,228,26.283
253,2015/10/24,14:18:00,32-36.9000N,135-19.5900E,228,26.283
254,2015/10/24,14:19:00,32-36.7500N,135-19.4000E,226,26.287
255,2015/10/24,14:20:00,32-36.6000N,135-19.2200E,226,26.354
256,2015/10/24,14:21:00,32-36.4500N,135-19.0200E,228,26.401
257,2015/10/24,14:22:00,32-36.3100N,135-18.8300E,229,26.418
258,2015/10/24,14:23:00,32-36.1700N,135-18.6400E,228,26.418
259,2015/10/24,14:24:00,32-36.0200N,135-18.4500E,227,26.429
260,2015/10/24,14:25:00,32-35.8700N,135-18.2500E,228,26.442
261,2015/10/24,14:26:00,32-35.7300N,135-18.0500E,228,26.445
262,2015/10/24,14:27:00,32-35.5800N,135-17.8600E,228,26.452
263,2015/10/24,14:28:00,32-35.4400N,135-17.6600E,228,26.453
264,2015/10/24,14:29:00,32-35.2900N,135-17.4700E,228,26.452
265,2015/10/24,14:30:00,32-35.1400N,135-17.2700E,228,26.458
266,2015/10/24,14:31:00,32-34.9900N,135-17.0800E,228,26.461
267,2015/10/24,14:32:00,32-34.8400N,135-16.8800E,229,26.464
268,2015/10/24,14:33:00,32-34.7000N,135-16.6900E,228,26.462
269,2015/10/24,14:34:00,32-34.5500N,135-16.4900E,228,26.463
270,2015/10/24,14:35:00,32-34.4100N,135-16.2900E,229,26.462
271,2015/10/24,14:36:00,32-34.2600N,135-16.0900E,229,26.461
272,2015/10/24,14:37:00,32-34.1100N,135-15.8900E,229,26.461
273,2015/10/24,14:38:00,32-33.9600N,135-15.6800E,228,26.457
274,2015/10/24,14:39:00,32-33.8100N,135-15.4900E,228,26.455
275,2015/10/24,14:40:00,32-33.6600N,135-15.2900E,228,26.452
276,2015/10/24,14:41:00,32-33.5100N,135-15.0900E,228,26.448
277,2015/10/24,14:42:00,32-33.3700N,135-14.8900E,230,26.445
278,2015/10/24,14:43:00,32-33.2200N,135-14.6900E,229,26.442
279,2015/10/24,14:44:00,32-33.0700N,135-14.5100E,224,26.437
280,2015/10/24,14:45:00,32-32.9000N,135-14.3300E,223,26.435
281,2015/10/24,14:46:00,32-32.7400N,135-14.1400E,223,26.436
282,2015/10/24,14:47:00,32-32.5800N,135-13.9500E,223,26.44
283,2015/10/24,14:48:00,32-32.4200N,135-13.7700E,223,26.442
284,2015/10/24,14:49:00,32-32.2600N,135-13.5900E,224,26.447
285,2015/10/24,14:50:00,32-32.1000N,135-13.4000E,225,26.448
286,2015/10/24,14:51:00,32-31.9300N,135-13.2100E,224,26.451
287,2015/10/24,14:52:00,32-31.7700N,135-13.0300E,224,26.447
288,2015/10/24,14:53:00,32-31.6100N,135-12.8400E,223,26.444
289,2015/10/24,14:54:00,32-31.4400N,135-12.6600E,224,26.439
290,2015/10/24,14:55:00,32-31.2800N,135-12.4700E,224,26.429
291,2015/10/24,14:56:00,32-31.1200N,135-12.2800E,224,26.418
292,2015/10/24,14:57:00,32-30.9600N,135-12.0900E,224,26.408
293,2015/10/24,14:58:00,32-30.7900N,135-11.9100E,223,26.396
294,2015/10/24,14:59:00,32-30.6200N,135-11.7000E,224,26.382
295,2015/10/24,15:00:00,32-30.4600N,135-11.5100E,224,26.37
296,2015/10/24,15:01:00,32-30.2900N,135-11.3300E,224,26.356
297,2015/10/24,15:02:00,32-30.1300N,135-11.1400E,224,26.345
298,2015/10/24,15:03:00,32-29.9700N,135-10.9500E,225,26.335
299,2015/10/24,15:04:00,32-29.8000N,135-10.7600E,224,26.319
300,2015/10/24,15:05:00,32-29.6400N,135-10.5700E,224,26.303
301,2015/10/24,15:06:00,32-29.4800N,135-10.3900E,224,26.292
302,2015/10/24,15:07:00,32-29.3100N,135-10.2000E,223,26.289
303,2015/10/24,15:08:00,32-29.1400N,135-10.0100E,225,26.288
304,2015/10/24,15:09:00,32-28.9800N,135-09.8200E,224,26.29
305,2015/10/24,15:10:00,32-28.8200N,135-09.6400E,224,26.286
306,2015/10/24,15:11:00,32-28.6600N,135-09.4500E,223,26.256
307,2015/10/24,15:12:00,32-28.4900N,135-09.2600E,224,26.208
308,2015/10/24,15:13:00,32-28.3300N,135-09.0600E,224,26.165
309,2015/10/24,15:14:00,32-28.1600N,135-08.8800E,224,26.136
310,2015/10/24,15:15:00,32-28.0000N,135-08.6900E,224,26.124
311,2015/10/24,15:16:00,32-27.8400N,135-08.5000E,225,26.098
312,2015/10/24,15:17:00,32-27.6800N,135-08.3100E,224,26.092
313,2015/10/24,15:18:00,32-27.5200N,135-08.1300E,224,26.092
314,2015/10/24,15:19:00,32-27.3600N,135-07.9400E,224,26.102
315,2015/10/24,15:20:00,32-27.1800N,135-07.7400E,224,26.114
316,2015/10/24,15:21:00,32-27.0200N,135-07.5500E,225,26.122
317,2015/10/24,15:22:00,32-26.8600N,135-07.3700E,224,26.116
318,2015/10/24,15:23:00,32-26.6900N,135-07.1800E,224,26.107
319,2015/10/24,15:24:00,32-26.5300N,135-07.0000E,223,26.108
320,2015/10/24,15:25:00,32-26.3700N,135-06.8200E,224,26.109
321,2015/10/24,15:26:00,32-26.2100N,135-06.6400E,223,26.102
322,2015/10/24,15:27:00,32-26.0500N,135-06.4600E,223,26.104
323,2015/10/24,15:28:00,32-25.8900N,135-06.2800E,223,26.113
324,2015/10/24,15:29:00,32-25.7200N,135-06.0900E,223,26.122
325,2015/10/24,15:30:00,32-25.5600N,135-05.9200E,222,26.146
326,2015/10/24,15:31:00,32-25.4000N,135-05.7400E,222,26.151
327,2015/10/24,15:32:00,32-25.2300N,135-05.5500E,223,26.151
328,2015/10/24,15:33:00,32-25.0700N,135-05.3700E,223,26.15
329,2015/10/24,15:34:00,32-24.9100N,135-05.1900E,223,26.151
330,2015/10/24,15:35:00,32-24.7500N,135-05.0200E,222,26.152
331,2015/10/24,15:36:00,32-24.5800N,135-04.8300E,222,26.155
332,2015/10/24,15:37:00,32-24.4200N,135-04.6600E,222,26.158
333,2015/10/24,15:38:00,32-24.2500N,135-04.4700E,223,26.159
334,2015/10/24,15:39:00,32-24.0900N,135-04.2900E,223,26.156
335,2015/10/24,15:40:00,32-23.9200N,135-04.1000E,222,26.154
336,2015/10/24,15:41:00,32-23.7500N,135-03.9200E,223,26.16
337,2015/10/24,15:42:00,32-23.5900N,135-03.7400E,223,26.161
338,2015/10/24,15:43:00,32-23.4200N,135-03.5600E,223,26.157
339,2015/10/24,15:44:00,32-23.2600N,135-03.3700E,222,26.155
340,2015/10/24,15:45:00,32-23.1000N,135-03.1900E,222,26.16
341,2015/10/24,15:46:00,32-22.9300N,135-03.0100E,222,26.166
342,2015/10/24,15:47:00,32-22.7600N,135-02.8300E,222,26.163
343,2015/10/24,15:48:00,32-22.6000N,135-02.6600E,221,26.165
344,2015/10/24,15:49:00,32-22.4300N,135-02.4800E,222,26.174
345,2015/10/24,15:50:00,32-22.2600N,135-02.3000E,222,26.174
346,2015/10/24,15:51:00,32-22.0900N,135-02.1200E,221,26.151
347,2015/10/24,15:52:00,32-21.9300N,135-01.9400E,220,26.134
348,2015/10/24,15:53:00,32-21.7500N,135-01.7700E,221,26.135
349,2015/10/24,15:54:00,32-21.5800N,135-01.5900E,221,26.145
350,2015/10/24,15:55:00,32-21.4200N,135-01.4100E,222,26.158
351,2015/10/24,15:56:00,32-21.2500N,135-01.2400E,221,26.168
352,2015/10/24,15:57:00,32-21.0800N,135-01.0600E,220,26.161
353,2015/10/24,15:58:00,32-20.9100N,135-00.8900E,222,26.158
354,2015/10/24,15:59:00,32-20.7400N,135-00.7100E,221,26.16
355,2015/10/24,16:00:00,32-20.5700N,135-00.5300E,221,26.171
356,2015/10/24,16:01:00,32-20.3800N,135-00.3400E,221,26.178
357,2015/10/24,16:02:00,32-20.2100N,135-00.1700E,221,26.182
358,2015/10/24,16:03:00,32-20.0400N,134-59.9900E,221,26.184
359,2015/10/24,16:04:00,32-19.8700N,134-59.8200E,220,26.182
360,2015/10/24,16:05:00,32-19.7000N,134-59.6300E,224,26.176
361,2015/10/24,16:06:00,32-19.5400N,134-59.4400E,226,26.173
362,2015/10/24,16:07:00,32-19.3800N,134-59.2400E,226,26.171
363,2015/10/24,16:08:00,32-19.2300N,134-59.0500E,226,26.167
364,2015/10/24,16:09:00,32-19.0700N,134-58.8600E,226,26.162
365,2015/10/24,16:10:00,32-18.9100N,134-58.6600E,226,26.161
366,2015/10/24,16:11:00,32-18.7500N,134-58.4700E,225,26.155
367,2015/10/24,16:12:00,32-18.5900N,134-58.2800E,225,26.156
368,2015/10/24,16:13:00,32-18.4400N,134-58.0900E,225,26.161
369,2015/10/24,16:14:00,32-18.2800N,134-57.9000E,226,26.165
370,2015/10/24,16:15:00,32-18.1200N,134-57.7000E,225,26.166
371,2015/10/24,16:16:00,32-17.9600N,134-57.5100E,225,26.169
372,2015/10/24,16:17:00,32-17.8000N,134-57.3200E,225,26.167
373,2015/10/24,16:18:00,32-17.6400N,134-57.1200E,226,26.163
374,2015/10/24,16:19:00,32-17.4800N,134-56.9300E,225,26.17
375,2015/10/24,16:20:00,32-17.3100N,134-56.7400E,225,26.171
376,2015/10/24,16:21:00,32-17.1600N,134-56.5500E,225,26.168
377,2015/10/24,16:22:00,32-16.9800N,134-56.3400E,226,26.17
378,2015/10/24,16:23:00,32-16.8300N,134-56.1500E,225,26.167
379,2015/10/24,16:24:00,32-16.6600N,134-55.9500E,225,26.168
380,2015/10/24,16:25:00,32-16.5100N,134-55.7600E,226,26.17
381,2015/10/24,16:26:00,32-16.3500N,134-55.5700E,225,26.172
382,2015/10/24,16:27:00,32-16.1900N,134-55.3700E,225,26.179
383,2015/10/24,16:28:00,32-16.0300N,134-55.1800E,226,26.177
384,2015/10/24,16:29:00,32-15.8700N,134-54.9900E,225,26.175
385,2015/10/24,16:30:00,32-15.7100N,134-54.8000E,224,26.18
386,2015/10/24,16:31:00,32-15.5500N,134-54.6100E,225,26.182
387,2015/10/24,16:32:00,32-15.3900N,134-54.4100E,226,26.177
388,2015/10/24,16:33:00,32-15.2300N,134-54.2300E,225,26.176
389,2015/10/24,16:34:00,32-15.0700N,134-54.0300E,225,26.171
390,2015/10/24,16:35:00,32-14.9100N,134-53.8400E,225,26.172
391,2015/10/24,16:36:00,32-14.7600N,134-53.6500E,226,26.165
392,2015/10/24,16:37:00,32-14.5900N,134-53.4500E,225,26.162
393,2015/10/24,16:38:00,32-14.4300N,134-53.2600E,225,26.167
394,2015/10/24,16:39:00,32-14.2800N,134-53.0700E,226,26.165
395,2015/10/24,16:40:00,32-14.1200N,134-52.8800E,225,26.168
396,2015/10/24,16:41:00,32-13.9600N,134-52.6900E,226,26.172
397,2015/10/24,16:42:00,32-13.8000N,134-52.5000E,225,26.175
398,2015/10/24,16:43:00,32-13.6300N,134-52.2900E,226,26.176
399,2015/10/24,16:44:00,32-13.4700N,134-52.0900E,226,26.174
400,2015/10/24,16:45:00,32-13.3100N,134-51.9000E,225,26.175
401,2015/10/24,16:46:00,32-13.1500N,134-51.7100E,225,26.179
402,2015/10/24,16:47:00,32-12.9900N,134-51.5200E,225,26.176
403,2015/10/24,16:48:00,32-12.8300N,134-51.3200E,225,26.175
404,2015/10/24,16:49:00,32-12.6700N,134-51.1300E,225,26.181
405,2015/10/24,16:50:00,32-12.5100N,134-50.9400E,226,26.18
406,2015/10/24,16:51:00,32-12.3500N,134-50.7500E,226,26.178
407,2015/10/24,16:52:00,32-12.1900N,134-50.5500E,225,26.181
408,2015/10/24,16:53:00,32-12.0300N,134-50.3600E,226,26.182
409,2015/10/24,16:54:00,32-11.8700N,134-50.1600E,226,26.179
410,2015/10/24,16:55:00,32-11.7200N,134-49.9700E,226,26.176
411,2015/10/24,16:56:00,32-11.5600N,134-49.7800E,226,26.171
412,2015/10/24,16:57:00,32-11.4000N,134-49.5800E,226,26.168
413,2015/10/24,16:58:00,32-11.2400N,134-49.3900E,226,26.165
414,2015/10/24,16:59:00,32-11.0800N,134-49.2000E,226,26.161